Shreveport, LA

1:43 AM CDT on August 24, 2016 (GMT -0500)
Barksdale Air Force Base

Weather History for KBAD - October, 2012

Change the Weather History Date:

Friday, October 26, 2012

  Actual Average Record
Temperature  
Mean Temperature 56 °F -  
Max Temperature 62 °F 72 °F 86 °F (2004)
Min Temperature 46 °F 52 °F 37 °F (2005)
Degree Days  
Heating Degree Days 9    
Growing Degree Days 6 (Base 50)    
Moisture  
Dew Point 50 °F    
Average Humidity 90    
Maximum Humidity 100    
Minimum Humidity 82    
Precipitation  
Precipitation 0.11 in - - ()
Sea Level Pressure  
Sea Level Pressure 30.12 in    
Wind  
Wind Speed 12 mph (North)    
Max Wind Speed 18 mph    
Max Gust Speed 24 mph    
Visibility 8 miles    
Events Rain , Thunderstorm    
Averages and records for this station are not official NWS values.
T = Trace of Precipitation, MM = Missing Value Source: NWS Daily Summary

Daily Weather History Graph

Daily Weather History Graph

Search for Another Location

Airport or City:

Trip Planner

Search our weather history database for the weather conditions in past years. The results will help you decide how hot, cold, wet, or windy it might be!

Date:

Astronomy

Oct. 26, 2012 Rise Set
Actual Time 7:27 AM CDT 6:29 PM CDT
Civil Twilight 7:02 AM CDT 6:54 PM CDT
Nautical Twilight 6:33 AM CDT 7:23 PM CDT
Astronomical Twilight 6:04 AM CDT 7:51 PM CDT
Moon 4:38 PM CDT (10/26) 4:32 AM CDT (10/26)
Length of Visible Light 11h 52m
Length of Day
11h 01m
Waxing Gibbous, 91% of the Moon is Illuminated
Oct 26
Waxing Gibbous
Oct 29
Full
Nov 6
Last Quarter
Nov 13
New
Nov 20
First Quarter

Hourly Weather History & Observations

Time (CDT) Temp. Dew Point Humidity Pressure Visibility Wind Dir Wind Speed Gust Speed Precip Events Conditions
12:16 AM 64.4 °F 62.6 °F 94% 29.97 in 4.0 mi NNW 13.8 mph - N/A Rain , Thunderstorm Thunderstorms and Rain
12:28 AM 62.6 °F 62.6 °F 100% 29.98 in 5.0 mi NW 11.5 mph - N/A Rain , Thunderstorm Thunderstorms and Rain
12:52 AM 62.6 °F 60.8 °F 94% 29.96 in 5.0 mi NW 12.7 mph - N/A Rain Rain
12:55 AM 62.6 °F 61.9 °F 97% 29.98 in 5.0 mi NW 12.7 mph - N/A Rain Rain
1:03 AM 62.6 °F 62.6 °F 100% 29.98 in 2.5 mi NW 13.8 mph - N/A Rain Rain
1:08 AM 62.6 °F 60.8 °F 94% 29.98 in 1.8 mi NNW 12.7 mph - N/A Rain , Thunderstorm Rain
1:25 AM 62.6 °F 60.8 °F 94% 29.97 in 3.0 mi NNW 13.8 mph - N/A Rain , Thunderstorm Light Rain
1:47 AM 60.8 °F 59.0 °F 94% 29.99 in 5.0 mi NW 17.3 mph - N/A Rain , Thunderstorm Light Thunderstorms and Rain
1:55 AM 61.2 °F 59.7 °F 95% 30.00 in 2.0 mi NW 16.1 mph - N/A Rain , Thunderstorm Heavy Thunderstorms and Rain
1:58 AM 60.8 °F 59.0 °F 94% 30.00 in 2.0 mi NNW 15.0 mph - N/A Thunderstorm Overcast
2:01 AM 60.8 °F 59.0 °F 94% 29.99 in 1.5 mi NNW 18.4 mph 23.0 mph N/A Rain , Thunderstorm Heavy Thunderstorms and Rain
2:11 AM 60.8 °F 59.0 °F 94% 29.99 in 1.0 mi North 13.8 mph - N/A Rain , Thunderstorm Heavy Thunderstorms and Rain
2:24 AM 59.0 °F 59.0 °F 100% 29.99 in 2.0 mi NNW 15.0 mph - N/A Rain , Thunderstorm Thunderstorms and Rain
2:55 AM 59.9 °F 59.2 °F 97% 29.99 in 5.0 mi NNW 8.1 mph - N/A Rain , Thunderstorm Light Rain
3:09 AM 60.8 °F 59.0 °F 94% 30.00 in 5.0 mi NW 9.2 mph - N/A Rain , Thunderstorm Light Thunderstorms and Rain
3:46 AM 59.0 °F 57.2 °F 94% 30.01 in 5.0 mi North 15.0 mph 20.7 mph N/A Rain , Thunderstorm Light Thunderstorms and Rain
3:55 AM 57.9 °F 55.8 °F 92% 30.01 in 6.0 mi North 12.7 mph 20.7 mph N/A Rain , Thunderstorm Light Thunderstorms and Rain
4:18 AM 57.2 °F 55.4 °F 94% 30.01 in 5.0 mi North 17.3 mph - N/A Rain , Thunderstorm Thunderstorms and Rain
4:24 AM 55.4 °F 53.6 °F 94% 30.01 in 2.0 mi North 18.4 mph - N/A Rain , Thunderstorm Thunderstorms and Rain
4:26 AM 55.4 °F 53.6 °F 94% 30.01 in 2.0 mi North 17.3 mph 24.2 mph N/A Rain , Thunderstorm Thunderstorms and Rain
4:55 AM 55.6 °F 54.5 °F 96% 30.02 in 5.0 mi North 12.7 mph - N/A Rain , Thunderstorm Light Thunderstorms and Rain
5:12 AM 55.4 °F 55.4 °F 100% 30.03 in 4.0 mi North 10.4 mph - N/A Rain Light Rain
5:27 AM 55.4 °F 53.6 °F 94% 30.03 in 10.0 mi North 12.7 mph - N/A   Overcast
5:35 AM 55.4 °F 53.6 °F 94% 30.04 in 10.0 mi NNE 8.1 mph - N/A Rain Light Rain Showers
5:44 AM 55.4 °F 53.6 °F 94% 30.05 in 10.0 mi North 9.2 mph - N/A Rain Light Rain Showers
5:55 AM 55.6 °F 54.5 °F 96% 30.05 in 10.0 mi North 9.2 mph - N/A Rain Light Rain Showers
6:43 AM 55.4 °F 53.6 °F 94% 30.05 in 10.0 mi NNE 16.1 mph 19.6 mph N/A   Overcast
6:55 AM 54.5 °F 51.8 °F 91% 30.07 in 10.0 mi North 17.3 mph - N/A   Overcast
7:55 AM 52.3 °F 49.8 °F 91% 30.07 in 10.0 mi NE 10.4 mph 18.4 mph N/A   Overcast
7:57 AM 51.8 °F 50.0 °F 94% 30.08 in 10.0 mi NNE 9.2 mph 18.4 mph N/A   Overcast
8:08 AM 51.8 °F 50.0 °F 94% 30.09 in 10.0 mi NNE 8.1 mph - N/A   Overcast
8:24 AM 51.8 °F 50.0 °F 94% 30.10 in 10.0 mi NNE 11.5 mph - N/A   Overcast
8:55 AM 52.7 °F 49.6 °F 89% 30.13 in 10.0 mi North 10.4 mph - N/A   Overcast
9:06 AM 53.6 °F 50.0 °F 88% 30.13 in 10.0 mi NNE 10.4 mph - N/A   Overcast
9:55 AM 52.5 °F 49.8 °F 91% 30.15 in 10.0 mi NNE 8.1 mph - 0.00 in Rain Light Rain Showers
10:24 AM 51.8 °F 48.2 °F 88% 30.13 in 10.0 mi NNE 11.5 mph - N/A   Overcast
10:31 AM 51.8 °F 48.2 °F 88% 30.15 in 10.0 mi NNE 8.1 mph - N/A Rain Light Rain Showers
10:42 AM 51.8 °F 48.2 °F 88% 30.16 in 10.0 mi NNE 11.5 mph - N/A Rain Light Rain Showers
10:55 AM 51.4 °F 48.9 °F 91% 30.16 in 10.0 mi NNE 6.9 mph - 0.01 in Rain Light Rain Showers
11:03 AM 51.8 °F 48.2 °F 88% 30.11 in 10.0 mi ENE 10.4 mph - N/A Rain Light Rain Showers
11:25 AM 50.0 °F 48.2 °F 94% 30.16 in 10.0 mi NNW 17.3 mph - N/A Rain Light Rain
11:39 AM 50.0 °F 48.2 °F 94% 30.16 in 10.0 mi North 10.4 mph - N/A   Overcast
11:42 AM 50.0 °F 48.2 °F 94% 30.17 in 10.0 mi North 8.1 mph - N/A   Overcast
11:55 AM 50.7 °F 47.8 °F 90% 30.17 in 10.0 mi North 8.1 mph - 0.03 in   Overcast
11:58 AM 50.0 °F 48.2 °F 94% 30.18 in 10.0 mi North 9.2 mph - N/A   Overcast
12:16 PM 50.0 °F 46.4 °F 87% 30.18 in 10.0 mi NNE 10.4 mph - N/A Rain Light Rain
12:55 PM 49.6 °F 46.8 °F 90% 30.18 in 9.0 mi NNE 8.1 mph - 0.04 in Rain Light Rain
1:07 PM 50.0 °F 46.4 °F 87% 30.19 in 4.0 mi NNE 10.4 mph - N/A Rain Rain
1:19 PM 50.0 °F 48.2 °F 94% 30.19 in 9.0 mi North 9.2 mph - N/A Rain Light Rain
1:32 PM 50.0 °F 48.2 °F 94% 30.19 in 10.0 mi North 9.2 mph 17.3 mph N/A   Overcast
1:45 PM 50.0 °F 46.4 °F 87% 30.18 in 10.0 mi North 15.0 mph - N/A Rain Light Rain
1:55 PM 49.6 °F 46.8 °F 90% 30.18 in 10.0 mi North 12.7 mph - 0.02 in Rain Light Rain
1:59 PM 50.0 °F 46.4 °F 87% 30.18 in 10.0 mi NNE 13.8 mph - N/A Rain Light Rain
2:10 PM 50.0 °F 46.4 °F 87% 30.17 in 10.0 mi North 10.4 mph - N/A   Overcast
2:11 PM 50.0 °F 46.4 °F 87% 30.17 in 10.0 mi North 11.5 mph - N/A   Overcast
2:55 PM 49.5 °F 46.2 °F 89% 30.16 in 10.0 mi NNE 15.0 mph 24.2 mph 0.00 in   Overcast
3:18 PM 50.0 °F 46.4 °F 87% 30.17 in 10.0 mi NNE 9.2 mph - N/A   Overcast
3:30 PM 50.0 °F 46.4 °F 87% 30.17 in 10.0 mi NNE 10.4 mph - N/A   Overcast
3:33 PM 50.0 °F 46.4 °F 87% 30.17 in 3.0 mi North 10.4 mph - N/A   Light Drizzle
3:48 PM 50.0 °F 46.4 °F 87% 30.17 in 3.0 mi North 10.4 mph 19.6 mph N/A   Overcast
3:55 PM 49.3 °F 47.3 °F 93% 30.17 in 3.0 mi North 10.4 mph 17.3 mph 0.00 in   Overcast
4:03 PM 50.0 °F 48.2 °F 94% 30.17 in 4.0 mi NNE 10.4 mph - N/A Rain Light Rain
4:08 PM 50.0 °F 48.2 °F 94% 30.17 in 4.0 mi NNE 13.8 mph - N/A   Light Drizzle
4:28 PM 50.0 °F 46.4 °F 87% 30.17 in 10.0 mi North 15.0 mph 21.9 mph N/A   Overcast
4:30 PM 50.0 °F 46.4 °F 87% 30.17 in 10.0 mi North 12.7 mph 21.9 mph N/A   Overcast
4:33 PM 50.0 °F 46.4 °F 87% 30.17 in 10.0 mi North 12.7 mph 21.9 mph N/A   Overcast
4:55 PM 49.3 °F 46.8 °F 91% 30.17 in 10.0 mi NNE 6.9 mph - 0.01 in   Overcast
5:04 PM 50.0 °F 46.4 °F 87% 30.18 in 10.0 mi North 6.9 mph - N/A   Light Drizzle
5:18 PM 50.0 °F 46.4 °F 87% 30.19 in 10.0 mi North 10.4 mph 18.4 mph N/A   Overcast
5:24 PM 50.0 °F 44.6 °F 82% 30.19 in 10.0 mi NNE 10.4 mph 20.7 mph N/A   Overcast
5:31 PM 50.0 °F 44.6 °F 82% 30.19 in 10.0 mi NNE 11.5 mph - N/A   Overcast
5:39 PM 50.0 °F 44.6 °F 82% 30.19 in 10.0 mi NNE 11.5 mph 17.3 mph N/A   Overcast
5:48 PM 50.0 °F 44.6 °F 82% 30.20 in 10.0 mi NNE 10.4 mph - N/A   Overcast
5:49 PM 50.0 °F 44.6 °F 82% 30.20 in 10.0 mi NNE 9.2 mph - N/A   Overcast
5:55 PM 49.1 °F 45.1 °F 86% 30.20 in 10.0 mi North 11.5 mph - 0.00 in   Overcast
6:03 PM 50.0 °F 44.6 °F 82% 30.20 in 10.0 mi North 9.2 mph - N/A   Overcast
6:04 PM 50.0 °F 44.6 °F 82% 30.20 in 10.0 mi North 9.2 mph - N/A   Overcast
6:13 PM 50.0 °F 44.6 °F 82% 30.19 in 10.0 mi NNE 9.2 mph - N/A   Overcast
6:42 PM 50.0 °F 44.6 °F 82% 30.20 in 10.0 mi NNE 8.1 mph - N/A   Overcast
6:55 PM 49.1 °F 45.0 °F 86% 30.21 in 10.0 mi NNE 6.9 mph - N/A   Overcast
7:35 PM 50.0 °F 44.6 °F 82% 30.22 in 10.0 mi North 8.1 mph - N/A   Overcast
7:55 PM 49.1 °F 44.6 °F 84% 30.23 in 10.0 mi North 5.8 mph - N/A   Overcast
8:55 PM 48.7 °F 44.1 °F 84% 30.24 in 10.0 mi North 5.8 mph - N/A   Overcast
9:55 PM 48.7 °F 44.2 °F 84% 30.25 in 10.0 mi North 4.6 mph - N/A   Overcast
10:55 PM 48.2 °F 44.4 °F 87% 30.25 in 10.0 mi North 4.6 mph - N/A   Overcast
11:55 PM 46.6 °F 43.0 °F 87% 30.24 in 10.0 mi NNE 3.5 mph - N/A   Clear